153  
NZUS99 KTBW 191018  
RWRTPA  
FLORIDA REGIONAL WEATHER ROUNDUP  
NATIONAL WEATHER SERVICE TAMPA BAY RUSKIN FL  
600 AM EDT FRI JUL 19 2019  
 
NOTE: "FAIR" INDICATES FEW OR NO CLOUDS BELOW 12,000 FEET WITH NO  
SIGNIFICANT WEATHER AND/OR S TO VISIBILITY
.  
 
 
STATION/POSITION
 
 
 
FLZ042-048>051-055-056-060-061-191100-  
EXTRA STATIONS  
 
CITY SKY/WX TMP DP RH WIND PRES REMARKS
 
EVERGLADES CTY NOT AVBL  
CRYSTAL RIVER FAIR 72 72 100 CALM 30.06S  
SEBRING FAIR 75 72 92 E3 30.07R  
EGLIN AFB FAIR 75 75 100 CALM 30.04R  
CANAVERAL CLEAR 75 53 44 CALM 30.05S  
 

 
FLZ001>010-012>015-191100-  
PANHANDLE FLORIDA  
 
CITY SKY/WX TMP DP RH WIND PRES REMARKS
 
PENSACOLA FAIR 79 79 100 CALM 30.03R  
PENSACOLA NAS FAIR 77 77 100 CALM 30.02S  
MILTON NAS FAIR 74 74 100 CALM 30.04R  
CRESTVIEW FAIR 74 72 93 CALM 30.05R  
VALPARAISO FAIR 77 74 90 CALM 30.03R  
MARY ESTHER PTCLDY 76 74 93 CALM 30.02R  
PANAMA CITY FAIR 76 73 91 CALM 30.03R  
TYNDALL AFB FAIR 78 75 91 CALM 30.03R  
APALACHICOLA FAIR 78 75 90 E3 30.03S  
 
STATION/POSITION
 
 
29.2N 88.2W  
28.8N 86.0W  
28.5N 84.5W  
 

 
FLZ011-016>039-191100-  
NORTH FLORIDA  
 
CITY SKY/WX TMP DP RH WIND PRES REMARKS
 
MARIANNA FAIR 76 74 93 S3 30.03S  
TALLAHASSEE MOCLDY 77 76 96 CALM 30.04S  
PERRY FAIR 77 76 97 CALM 30.06R FOG  
CROSS CITY FAIR 75 74 98 CALM 30.05S  
GAINESVILLE FAIR 75 74 96 CALM 30.08S  
MAYPORT NAS CLOUDY 79 74 84 SW6 30.05R  
JACKSONVILLE FAIR 76 74 93 CALM 30.05R  
JAX NAS MOCLDY 81 73 76 SW5 30.06R  
JAX CRAIG FAIR 78 76 93 SW3 30.05R  
ST AUGUSTINE FAIR 76 74 93 SW5 30.07R  
 
STATION/POSITION
 
 
KEATON BEACH  
31.4N 80.9W  
ST AUGUSTINE  
 

 
FLZ040-043>046-052-053-057-058-063-191100-  
CENTRAL FLORIDA  
 
CITY SKY/WX TMP DP RH WIND PRES REMARKS
 
OCALA FAIR 73 72 96 CALM 30.07R  
LEESBURG FAIR 77 73 87 S7 30.07R  
SANFORD FAIR 77 72 84 S6 30.06S  
ORLANDO EXEC FAIR 77 73 87 CALM 30.07R  
ORLANDO INTL FAIR 75 72 90 CALM 30.07R  
WINTER HAVEN FAIR 77 72 84 SE3 30.08R  
LAKELAND CLEAR 73 72 94 CALM 30.07R  
BARTOW FAIR 73 72 94 CALM 30.06R  
 

 
FLZ041-047-054-059-064-191100-  
EAST CENTRAL FLORIDA  
 
CITY SKY/WX TMP DP RH WIND PRES REMARKS
 
DAYTONA BEACH FAIR 75 74 96 SW3 30.07R  
JFK SPACE CTR CLEAR 76 65 67 S3 30.06R  
PATRICK AFB FAIR 79 79 100 CALM 30.06S  
MELBOURNE FAIR 77 74 90 SW3 30.06S  
VERO BEACH FAIR 73 71 93 CALM 30.07R  
FT PIERCE FAIR 72 70 93 CALM 30.06S FOG  
STUART FAIR 77 73 88 CALM 30.07S  
 
STATION/POSITION
 
 
28.9N 78.5W  
 

 
FLZ042-048>051-055-056-060-061-191100-  
WEST CENTRAL FLORIDA  
 
CITY SKY/WX TMP DP RH WIND PRES REMARKS
 
BROOKSVILLE FAIR 73 72 96 CALM 30.07R  
TAMPA FAIR 78 73 84 SE3 30.05S  
MACDILL AFB FAIR 76 73 90 SE5 30.05R  
ST PETERSBURG FAIR 77 75 93 SE5 30.04S  
ST PET-WHITTED FAIR 79 74 84 S10 30.03S  
SARASOTA FAIR 75 73 93 E3 30.03S  
 
STATION/POSITION
 
 
CEDAR KEY  
28.5N 84.5W  
VENICE  
 

 
FLZ062-065-066-069-070-075>078-191100-  
SOUTHWEST FLORIDA AND KEYS  
 
CITY SKY/WX TMP DP RH WIND PRES REMARKS
 
PUNTA GORDA FAIR 76 75 97 E5 30.07R  
FT MYERS FAIR 76 74 93 E3 30.04S  
SOUTHWEST INTL FAIR 76 74 93 E5 30.05S  
MARATHON FAIR 84 74 71 E8 30.03S HX 91  
KEY WEST NAS FAIR 85 73 67 E13 30.03R HX 91  
KEY WEST INTL FAIR 83 74 74 E12 30.03S  
 
STATION/POSITION
 
 
VENICE  
26.0N 85.6W  
SAND KEY  
SOMBRERO KEY  
LONG KEY  
 

 
FLZ067-068-071>074-191100-  
SOUTHEAST FLORIDA  
 
CITY SKY/WX TMP DP RH WIND PRES REMARKS
 
W PALM BEACH FAIR 80 73 79 SE5 30.06S  
POMPANO BEACH FAIR 84 74 71 E8 30.05R HX 91  
FT LAUDER-EXEC FAIR 79 74 84 E5 30.05R  
FT LAUDERDALE FAIR 83 75 77 E12 30.04S HX 90  
PEMBROKE PINES FAIR 80 74 81 CALM 30.07R  
OPA LOCKA FAIR 81 75 82 E6 30.06R  
MIAMI LGT RAIN 82 73 74 VRB5 30.05R  
WEST KENDALL FAIR 80 74 81 NE6 30.05R  
HOMESTEAD FAIR 81 75 80 E6 30.04R  
 
STATION/POSITION
 
 
LAKE WORTH  
FOWEY ROCKS  
SETTLEMENT POINT  
 

 
 
 
CLICK HERE TO GO TO PREVIOUS BULLETINS.

The Nexlab FL Page Main Text Page